Regional Weather Roundup
Issued by NWS

Home | Current Version | Previous Version | Graphics & Text | Print | Product List | Glossary On
Versions: 1 2 3 4 5 6 7 8 9 10 11 12 13 14 15 16 17 18 19 20 21 22 23 24 25 26 27 28 29 30 31 32 33 34 35 36 37 38 39 40 41 42 43 44 45 46 47 48 49 50
000
ASUS43 KLOT 011758
RWRIL

ILLINOIS REGIONAL WEATHER ROUNDUP
NATIONAL WEATHER SERVICE CHICAGO/ROMEOVILLE IL
1200 PM CST SUN FEB 01 2015

NOTE: "FAIR" INDICATES FEW OR NO CLOUDS BELOW 12,000 FEET WITH NO
SIGNIFICANT WEATHER AND/OR OBSTRUCTIONS TO VISIBILITY.

* THESE STATIONS ARE NOT UNDER NWS QUALITY CONTROL. THEY ALSO MAY NOT
  REPORT WEATHER SUCH AS PRECIPITATION OR FOG.

ILZ001-002-007-009-015-016-024-011900-
NORTHWEST ILLINOIS

CITY           SKY/WX    TMP DP  RH WIND       PRES   REMARKS
MOLINE         SNOW      27  23  85 NE18G25   29.78F VSB 1/2 WCI  14
6HR MIN TEMP:  27; 6HR MAX TEMP:  32; 6HR PCP:  0.23;

$$

ILZ003-004-008-010-011-017-018-011900-
NORTH CENTRAL ILLINOIS

CITY           SKY/WX    TMP DP  RH WIND       PRES   REMARKS
ROCKFORD       LGT SNOW  24  20  84 NE23G32   29.85F VSB 3/4 WCI   9
$$

ILZ005-006-012>014-019>023-011900-
NORTHEAST ILLINOIS

CITY           SKY/WX    TMP DP  RH WIND       PRES   REMARKS
CHICAGO-OHARE  SNOW      26  24  92 NE20G26   29.82F VSB 1/2 WCI  12
6HR MIN TEMP:  26; 6HR MAX TEMP:  30; 6HR PCP:  0.26;

CHICAGO-MIDWAY NOT AVBL
AURORA         LGT SNOW  30  25  81 NE22G31   29.78F VSB 3/4 WCI  17
6HR MIN TEMP:  30; 6HR MAX TEMP:  32; 6HR PCP:  0.02;

WAUKEGAN       NOT AVBL
DUPAGE AIRPORT LGT SNOW  28  24  85 NE21G28   29.79F VSB 1   WCI  15
6HR MIN TEMP:  28; 6HR MAX TEMP:  31; 6HR PCP:  0.03;

WHEELING       SNOW      26  23  88 NE13G26   29.87F VSB 1/4 WCI  15
6HR MIN TEMP:  26; 6HR MAX TEMP:  31; 6HR PCP: TRACE;

NORTHERLY ISL    N/A     29  28  96 NE22        N/A  WCI  16
$$

LMZ740>746-011900-
SOUTHERN LAKE MICHIGAN

STATION/POSITION SKY/WX   TEMP    WIND        PRES    VSBY  WAVE
                          AIR SEA DIR/SP/G                  HT/PER
                          (F)     (DEG/KT/KT) (MB)    (MI)  (FT/S)
WAUKEGAN HARBOR            26      50/ 32/ 36   N/A
HARRISON CRIB              28      70/ 29/ 34   N/A
BURNHAM HARBOR             29      60/ 23/ 25   N/A
CALUMET HARBOR             29      60/ 23/ 28   N/A
MICHIGAN CITY              28      50/ 18/ 21   N/A
$$

ILZ025>027-034>036-040-047-049-050-058-095>099-011900-
WEST-CENTRAL ILLINOIS

CITY           SKY/WX    TMP DP  RH WIND       PRES   REMARKS
$$

ILZ028>032-037-038-041>044-048-051>054-059>061-011900-
CENTRAL ILLINOIS

CITY           SKY/WX    TMP DP  RH WIND       PRES   REMARKS
BLOOMINGTON    LGT SNOW  34  34 100 SE6       29.70F VSB 3/4 WCI  29
PEORIA         LGT SNOW  34  32  92 NE6       29.71F VSB 3/4 WCI  29
SPRINGFIELD    SNOW      34  32  92 CALM      29.68F VSB 1/2
6HR MIN TEMP:  33; 6HR MAX TEMP:  34; 6HR PCP:  0.18;

TAYLORVILLE    NOT AVBL
$$

ILZ033-039-045-046-055>057-062-063-011900-
EAST-CENTRAL ILLINOIS

CITY           SKY/WX    TMP DP  RH WIND       PRES   REMARKS
CHAMPAIGN      LGT SNOW  34  32  92 SE9       29.67F FOG     WCI  27
MATTOON        LGT RAIN  35  33  92 SE10      29.65F FOG     WCI  27
$$

ILZ079-100>102-011900-
SOUTHWEST ILLINOIS

CITY           SKY/WX    TMP DP  RH WIND       PRES   REMARKS
ALTON          DRIZZLE   37  37 100 SW10      29.68F WCI  30
BELLEVILLE     CLOUDY    39  39 100 SW3       29.67F
$$

ILZ064>066-069>071-074>076-080>082-084>086-088>090-092>094-011900-
SOUTH-CENTRAL ILLINOIS

CITY           SKY/WX    TMP DP  RH WIND       PRES   REMARKS
CARBONDALE     CLOUDY    44  42  93 S12       29.68F FOG
6HR MIN TEMP:  39; 6HR MAX TEMP:  44; 6HR PCP:  0.36;

MARION         LGT RAIN  45  45 100 S12       29.70F FOG
$$

ILZ067-068-072-073-078-083-087-091-011900-
SOUTHEAST ILLINOIS

CITY           SKY/WX    TMP DP  RH WIND       PRES   REMARKS
$$

ABBREVIATIONS USED IN REMARKS
   TC - TEMPERATURE IN CELSIUS
  WCI - WIND CHILL INDEX
   HX - HEAT INDEX
  VSB - VISIBILITY
$$




USA.gov is the U.S. government's official web portal to all federal, state and local government web resources and services.